Location: Qazi Observatory
(41.6337°N, 88.1517°W)
Time: 20:51:38
(UTC-05:00)

Amateur Radio Satellites - All Passes

Search period start: 27 June 2017 20:21
Search period end: 28 June 2017 20:21
Location: Qazi Observatory, 41.6337°N, 88.1517°W

Satellite Date Start Highest point End Downlink Frequencies (MHz)
Time Altitude Azimuth
O/OREOS (USA 219) 27 Jun 20:23:56 20:27:01 18° 101° (E) 20:30:07 437.305
SEEDS 27 Jun 20:25:30 20:29:15 31° 264° (W) 20:32:59 437.485
HO-68 27 Jun 20:27:31 20:33:56 34° 264° (W) 20:40:22 435.675
STRAND 1 27 Jun 20:29:35 20:34:46 89° 102° (ESE) 20:39:55 437.568
DELFI C3 27 Jun 20:39:48 20:42:09 16° 66° (ENE) 20:44:31 145.870
NO-84 27 Jun 20:40:54 20:44:19 33° 129° (SE) 20:48:00 435.350 FM
BEESAT 2 27 Jun 20:44:44 20:48:10 29° 114° (ESE) 20:51:41 435.950
YUBILEINY 27 Jun 20:45:07 20:51:54 26° 81° (E) 20:58:42 435.215
CUTE 1.7 + AOD 2 27 Jun 20:50:14 20:51:47 12° 270° (W) 20:53:19 437.475
EO-88 27 Jun 21:02:09 21:04:38 17° 67° (ENE) 21:07:07 145.990 - 145.960
RS-15 27 Jun 21:03:20 21:15:27 80° 118° (ESE) 21:27:51 29.354- 29.394
AO-73 27 Jun 21:04:35 21:09:01 53° 260° (W) 21:13:31 145.935
AO-85 27 Jun 21:08:15 21:11:56 33° 310° (NW) 21:15:32 145.980
AAUSAT CUBESAT 2 27 Jun 21:09:45 21:12:56 21° 266° (W) 21:16:08 437.432
BEESAT 3 27 Jun 21:17:15 21:21:03 43° 308° (NW) 21:24:55 437.485
CUBEBUG 2 27 Jun 21:27:07 21:28:28 11° 272° (W) 21:29:49 437.445
Oscar 11 27 Jun 21:29:23 21:33:22 35° 263° (W) 21:37:23 .
PCSat 27 Jun 21:35:04 21:40:20 52° 246° (WSW) 21:45:34 145.827
ZACube-1 27 Jun 21:42:29 21:45:52 20° 268° (W) 21:49:16 437.345
O/OREOS (USA 219) 27 Jun 22:01:45 22:06:05 43° 297° (WNW) 22:10:25 437.305
TIGRISAT 27 Jun 22:05:42 22:09:19 22° 93° (E) 22:12:50 435.000
FO-29 27 Jun 22:09:18 22:16:53 48° 97° (E) 22:24:15 435.910
STRAND 1 27 Jun 22:11:05 22:13:11 12° 302° (WNW) 22:15:16 437.568
DELFI C3 27 Jun 22:12:54 22:16:35 40° 262° (W) 22:20:18 145.870
M-CUBED/EXP-1 PRIME 27 Jun 22:14:33 22:18:03 33° 104° (ESE) 22:21:47 437.505
NO-84 27 Jun 22:18:08 22:21:50 37° 328° (NNW) 22:25:48 435.350 FM
BEESAT 2 27 Jun 22:22:27 22:25:54 27° 312° (NW) 22:29:24 435.950
SO-50 27 Jun 22:23:09 22:27:34 50° 53° (NE) 22:32:00 436.795
EO-88 27 Jun 22:34:48 22:38:04 30° 263° (W) 22:41:22 145.990 - 145.960
ESTCUBE 1 27 Jun 22:35:44 22:39:13 22° 66° (ENE) 22:42:42 437.505/2401.250
YUBILEINY 27 Jun 22:39:07 22:47:52 69° 280° (W) 22:56:42 435.215
PRISM 27 Jun 22:47:36 22:51:42 64° 102° (ESE) 22:55:47 437.425
UNISAT 6 27 Jun 22:47:51 22:52:29 67° 101° (E) 22:56:59 437.425
LO-87 27 Jun 22:48:47 22:52:11 43° 73° (ENE) 22:55:36 145.935 - 145.965
RS-15 27 Jun 23:18:06 23:29:20 39° 324° (NW) 23:40:39 29.354- 29.394
AIST 2D 27 Jun 23:38:38 23:41:37 26° 96° (E) 23:44:35 435.315
EO-79 27 Jun 23:41:18 23:43:41 14° 91° (E) 23:46:02 145.935-145.965
TIGRISAT 27 Jun 23:41:49 23:46:05 37° 290° (WNW) 23:50:15 435.000
M-CUBED/EXP-1 PRIME 27 Jun 23:49:33 23:52:19 20° 297° (WNW) 23:55:14 437.505
50 SAT 27 Jun 23:50:11 23:51:03 11° 65° (ENE) 23:51:54 437.505
DUCHIFAT 1 27 Jun 23:52:01 23:54:31 15° 92° (E) 23:57:01 145.980
FO-29 27 Jun 23:54:32 00:01:39 39° 295° (WNW) 00:08:40 435.910
NO-84 27 Jun 23:57:55 00:00:27 15° 349° (N) 00:03:01 435.350 FM
NANOSAT C BR1 28 Jun 00:01:20 00:04:39 22° 94° (E) 00:07:57 145.865
VELOX 1 28 Jun 00:01:36 00:05:43 42° 71° (ENE) 00:09:52 145.980
SPROUT 28 Jun 00:02:49 00:06:53 46° 72° (ENE) 00:11:01 437.525
SO-50 28 Jun 00:04:32 00:07:40 18° 249° (WSW) 00:10:47 436.795
ESTCUBE 1 28 Jun 00:11:40 00:15:48 35° 262° (W) 00:19:57 437.505/2401.250
DX 1 28 Jun 00:13:49 00:16:57 20° 65° (ENE) 00:20:05 434.975-435.025
LO-87 28 Jun 00:24:49 00:25:51 11° 269° (W) 00:26:54 145.935 - 145.965
PRISM 28 Jun 00:24:59 00:26:26 12° 298° (WNW) 00:27:53 437.425
UKube-1 28 Jun 00:25:45 00:28:40 18° 65° (ENE) 00:31:35 .
UNISAT 6 28 Jun 00:26:16 00:28:35 14° 298° (WNW) 00:30:52 437.425
POLYITAN 1 28 Jun 00:40:53 00:45:10 68° 102° (ESE) 00:49:24 437.675
YUBILEINY 28 Jun 00:42:21 00:46:34 14° 303° (WNW) 00:50:48 435.215
BUGSAT 1 28 Jun 00:50:55 00:54:07 20° 94° (E) 00:57:17 437.445
QB50P2 28 Jun 00:51:53 00:56:12 82° 281° (WNW) 01:00:26 145.880/145.840
AIST 2D 28 Jun 01:12:15 01:14:39 18° 292° (WNW) 01:17:02 435.315
EO-79 28 Jun 01:15:34 01:19:42 48° 287° (WNW) 01:23:48 145.935-145.965
50 SAT 28 Jun 01:20:12 01:23:25 43° 261° (W) 01:26:40 437.505
DUCHIFAT 1 28 Jun 01:26:21 01:30:25 45° 288° (WNW) 01:34:27 145.980
Oscar 19 28 Jun 01:30:50 01:34:50 23° 94° (E) 01:38:49 437.125/150
NANOSAT C BR1 28 Jun 01:36:35 01:40:24 32° 290° (WNW) 01:44:10 145.865
NO-84 28 Jun 01:36:57 01:39:30 15° 10° (N) 01:42:04 435.350 FM
RS-15 28 Jun 01:37:24 01:46:44 23° 358° (N) 01:55:55 29.354- 29.394
VELOX 1 28 Jun 01:39:26 01:42:21 17° 267° (W) 01:45:18 145.980
SPROUT 28 Jun 01:40:31 01:43:02 15° 268° (W) 01:45:34 437.525
DX 1 28 Jun 01:48:50 01:52:51 38° 262° (W) 01:56:55 434.975-435.025
UKube-1 28 Jun 02:00:17 02:04:21 42° 261° (W) 02:08:28 .
MOZHAYETS 4 28 Jun 02:02:06 02:04:00 12° 61° (ENE) 02:05:54
POLYITAN 1 28 Jun 02:18:48 02:20:21 12° 298° (WNW) 02:21:55 437.675
BUGSAT 1 28 Jun 02:25:41 02:29:32 34° 290° (WNW) 02:33:20 437.445
ITUPSAT 1 28 Jun 02:44:01 02:48:39 50° 71° (ENE) 02:53:19 437.325
Gurwin Techsat 1B 28 Jun 02:44:59 02:50:19 71° 102° (ESE) 02:55:37 435.225
BEESAT 28 Jun 02:52:03 02:56:45 62° 74° (ENE) 03:01:31 436.000
Oscar 19 28 Jun 03:09:29 03:14:20 43° 290° (WNW) 03:19:08 437.125/150
AO-7 28 Jun 03:13:44 03:20:06 23° 93° (E) 03:26:24 .
NO-84 28 Jun 03:14:08 03:18:09 34° 30° (NNE) 03:22:09 435.350 FM
MOZHAYETS 4 28 Jun 03:35:53 03:40:31 75° 258° (WSW) 03:45:11
ITAMSAT 1 28 Jun 03:52:50 03:57:43 38° 98° (E) 04:02:34 435.822/435.867
RS-15 28 Jun 03:53:14 04:04:18 36° 33° (NNE) 04:14:54 29.354- 29.394
BEESAT 3 28 Jun 03:57:16 03:59:31 14° 41° (NE) 04:01:45 437.485
AO-85 28 Jun 03:58:22 04:01:41 23° 47° (NE) 04:05:08 145.980
ITUPSAT 1 28 Jun 04:23:33 04:26:44 18° 268° (W) 04:29:57 437.325
CUBESAT XI-V 28 Jun 04:24:19 04:28:54 66° 74° (ENE) 04:33:29 437.345
Gurwin Techsat 1B 28 Jun 04:26:26 04:29:39 16° 300° (WNW) 04:32:52 435.225
BEESAT 28 Jun 04:32:26 04:34:56 14° 269° (W) 04:37:26 436.000
KKS-1 28 Jun 04:49:18 04:53:44 84° 77° (ENE) 04:58:12 437.445
NO-84 28 Jun 04:51:41 04:55:51 44° 229° (SW) 04:59:56 435.350 FM
BEESAT 2 28 Jun 05:02:01 05:05:13 22° 46° (NE) 05:08:23 435.950
AO-7 28 Jun 05:05:13 05:13:36 76° 291° (WNW) 05:21:55 .
STARS 28 Jun 05:11:06 05:15:24 61° 73° (ENE) 05:19:46 437.465
ITAMSAT 1 28 Jun 05:32:37 05:36:59 27° 295° (WNW) 05:41:20 435.822/435.867
BEESAT 3 28 Jun 05:33:34 05:37:34 72° 240° (WSW) 05:41:30 437.485
AO-85 28 Jun 05:38:17 05:42:10 39° 243° (WSW) 05:46:17 145.980
DOVE 4 28 Jun 05:39:10 05:43:15 25° 94° (E) 05:47:26 437.250
CUBESAT XI-V 28 Jun 06:04:46 06:06:42 12° 270° (W) 06:08:38 437.345
RS-15 28 Jun 06:06:09 06:18:22 85° 240° (WSW) 06:29:54 29.354- 29.394
STRAND 1 28 Jun 06:08:48 06:12:03 17° 61° (ENE) 06:15:19 437.568
XW-2F 28 Jun 06:23:01 06:26:02 23° 95° (E) 06:29:01 145.980 - 146.000
XW-2D 28 Jun 06:28:51 06:32:11 29° 97° (E) 06:35:28 145.860 - 145.880
O/OREOS (USA 219) 28 Jun 06:32:16 06:36:24 36° 61° (ENE) 06:40:32 437.305
XW-2B 28 Jun 06:37:49 06:41:18 36° 98° (E) 06:44:46 145.730 - 145.750
BEESAT 2 28 Jun 06:39:18 06:43:07 40° 244° (WSW) 06:46:53 435.950
LilacSat-2 28 Jun 06:40:31 06:44:08 42° 99° (E) 06:47:43 437.200
ISS 28 Jun 06:44:12 06:45:55 14° 130° (SE) 06:47:38 437.550
STARS 28 Jun 06:50:20 06:52:09 12° 270° (W) 06:53:57 437.465
XW-2C 28 Jun 06:53:17 06:57:01 58° 100° (E) 07:00:42 145.795 - 145.815
YUBILEINY 28 Jun 06:55:40 06:58:56 12° 55° (NE) 07:02:10 435.215
CUTE-I 28 Jun 06:55:58 07:01:13 50° 100° (E) 07:06:25 437.470
AO-7 28 Jun 06:59:44 07:05:01 19° 312° (NW) 07:10:18 .
KAITUO 1B 28 Jun 07:00:09 07:03:48 53° 99° (E) 07:07:24 145.475/437.950
DOVE 4 28 Jun 07:16:21 07:20:59 40° 289° (WNW) 07:25:48 437.250
Tancredo 1 28 Jun 07:24:26 07:27:26 74° 143° (SE) 07:30:28 437.200
NUDT-PHONESAT 28 Jun 07:31:38 07:35:17 58° 285° (WNW) 07:38:52 437.300
XW-2A 28 Jun 07:36:17 07:38:28 16° 93° (E) 07:40:37 145.665 - 145.685
CUBEBUG 2 28 Jun 07:38:40 07:41:37 17° 90° (E) 07:44:32 437.445
STRAND 1 28 Jun 07:45:36 07:50:41 64° 258° (WSW) 07:55:49 437.568
HO-68 28 Jun 07:53:57 08:00:52 48° 100° (E) 08:07:42 435.675
XW-2F 28 Jun 07:57:04 08:00:05 23° 291° (WNW) 08:03:04 145.980 - 146.000
XW-2D 28 Jun 08:03:29 08:06:10 19° 292° (WNW) 08:08:49 145.860 - 145.880
UWE-3 28 Jun 08:05:53 08:09:05 19° 92° (E) 08:12:11 435.000/436.395/437.385
SEEDS 28 Jun 08:08:28 08:12:24 39° 98° (E) 08:16:18 437.485
O/OREOS (USA 219) 28 Jun 08:12:10 08:15:33 21° 258° (WSW) 08:18:56 437.305
XW-2B 28 Jun 08:12:54 08:15:12 16° 294° (WNW) 08:17:28 145.730 - 145.750
LilacSat-2 28 Jun 08:16:04 08:18:03 14° 295° (WNW) 08:20:00 437.200
ISS 28 Jun 08:18:45 08:22:01 70° 327° (NNW) 08:25:17 437.550
RS-15 28 Jun 08:20:51 08:28:53 22° 262° (W) 08:36:42 29.354- 29.394
FO-29 28 Jun 08:23:10 08:27:47 21° 57° (ENE) 08:32:45 435.910
XW-2C 28 Jun 08:30:04 08:30:41 10° 297° (WNW) 08:31:19 145.795 - 145.815
CUTE 1.7 + AOD 2 28 Jun 08:31:34 08:35:46 69° 285° (WNW) 08:39:55 437.475
KAITUO 1B 28 Jun 08:36:23 08:37:19 11° 296° (WNW) 08:38:15 145.475/437.950
CUTE-I 28 Jun 08:36:48 08:40:54 23° 297° (WNW) 08:44:58 437.470
YUBILEINY 28 Jun 08:49:05 08:57:51 62° 78° (ENE) 09:06:30 435.215
AAUSAT CUBESAT 2 28 Jun 08:50:18 08:54:21 54° 100° (E) 08:58:22 437.432
AO-73 28 Jun 08:52:44 08:56:34 28° 95° (E) 09:00:18 145.935
Tancredo 1 28 Jun 09:00:57 09:03:17 20° 341° (NNW) 09:05:39 437.200
M-CUBED/EXP-1 PRIME 28 Jun 09:01:17 09:04:20 37° 67° (ENE) 09:07:24 437.505
TIGRISAT 28 Jun 09:04:29 09:07:57 21° 65° (ENE) 09:11:26 435.000
XW-2A 28 Jun 09:08:20 09:11:14 26° 289° (WNW) 09:14:06 145.665 - 145.685
CUBEBUG 2 28 Jun 09:13:59 09:18:32 50° 288° (WNW) 09:22:56 437.445
Oscar 11 28 Jun 09:16:00 09:20:03 39° 98° (E) 09:24:03 .
ZACube-1 28 Jun 09:29:12 09:33:40 82° 102° (ESE) 09:38:00 437.345
PRISM 28 Jun 09:36:48 09:40:39 45° 72° (ENE) 09:44:32 437.425
UWE-3 28 Jun 09:41:24 09:45:43 42° 289° (WNW) 09:49:54 435.000/436.395/437.385
HO-68 28 Jun 09:42:02 09:48:21 35° 298° (WNW) 09:54:38 435.675
SEEDS 28 Jun 09:44:59 09:47:46 18° 294° (WNW) 09:50:35 437.485
UNISAT 6 28 Jun 09:46:11 09:50:44 59° 73° (ENE) 09:55:21 437.425
DELFI C3 28 Jun 09:49:46 09:52:56 23° 95° (E) 09:56:06 145.870
ISS 28 Jun 09:56:33 09:58:57 19° 345° (NNW) 10:01:22 437.550
EO-88 28 Jun 10:03:28 10:06:15 20° 94° (E) 10:09:00 145.990 - 145.960
FO-29 28 Jun 10:05:46 10:11:55 75° 258° (WSW) 10:18:59 435.910
AIST 2D 28 Jun 10:14:56 10:16:04 11° 65° (ENE) 10:17:11 435.315
AAUSAT CUBESAT 2 28 Jun 10:27:23 10:29:20 13° 296° (WNW) 10:31:17 437.432
AO-73 28 Jun 10:29:02 10:32:41 26° 292° (WNW) 10:36:15 145.935
EO-79 28 Jun 10:34:48 10:36:30 12° 62° (ENE) 10:38:11 145.935-145.965
PCSat 28 Jun 10:35:10 10:38:56 19° 105° (ESE) 10:42:43 145.827
Tancredo 1 28 Jun 10:38:17 10:39:44 13° 1° (N) 10:41:11 437.200
M-CUBED/EXP-1 PRIME 28 Jun 10:38:25 10:39:00 10° 263° (W) 10:39:37 437.505
TIGRISAT 28 Jun 10:39:56 10:44:18 42° 262° (W) 10:48:46 435.000
DUCHIFAT 1 28 Jun 10:44:50 10:46:39 13° 62° (ENE) 10:48:29 145.980
YUBILEINY 28 Jun 10:46:50 10:53:59 29° 278° (W) 11:01:06 435.215
Oscar 11 28 Jun 10:52:50 10:55:53 19° 294° (WNW) 10:58:55 .
NANOSAT C BR1 28 Jun 10:53:58 10:56:47 18° 65° (ENE) 10:59:39 145.865
ZACube-1 28 Jun 11:08:30 11:09:13 10° 300° (WNW) 11:09:56 437.345
PRISM 28 Jun 11:13:58 11:16:10 14° 268° (W) 11:18:21 437.425
DELFI C3 28 Jun 11:24:21 11:27:40 26° 290° (WNW) 11:30:58 145.870
UNISAT 6 28 Jun 11:25:19 11:27:48 14° 270° (W) 11:30:19 437.425
POLYITAN 1 28 Jun 11:33:09 11:37:17 50° 73° (ENE) 11:41:28 437.675
ISS 28 Jun 11:34:23 11:36:23 15° 6° (N) 11:38:23 437.550
EO-88 28 Jun 11:36:52 11:39:53 24° 290° (WNW) 11:42:51 145.990 - 145.960
BUGSAT 1 28 Jun 11:41:23 11:43:52 16° 64° (ENE) 11:46:22 437.445
QB50P2 28 Jun 11:44:04 11:48:19 74° 76° (ENE) 11:52:37 145.880/145.840
AIST 2D 28 Jun 11:45:24 11:48:50 46° 261° (W) 11:52:17 435.315
LO-87 28 Jun 11:48:32 11:52:07 54° 100° (E) 11:55:41 145.935 - 145.965
FO-29 28 Jun 11:56:56 11:58:23 11° 278° (W) 11:59:52 435.910
ESTCUBE 1 28 Jun 12:03:24 12:07:42 45° 99° (E) 12:11:59 437.505/2401.250
EO-79 28 Jun 12:07:28 12:11:41 66° 258° (WSW) 12:15:57 145.935-145.965
Tancredo 1 28 Jun 12:13:39 12:16:08 22° 21° (NNE) 12:18:37 437.200
PCSat 28 Jun 12:16:29 12:21:49 60° 303° (WNW) 12:27:13 145.827
DUCHIFAT 1 28 Jun 12:17:35 12:21:46 63° 259° (W) 12:26:01 145.980
NANOSAT C BR1 28 Jun 12:28:08 12:32:10 42° 262° (W) 12:36:14 145.865
Gurwin Techsat 1B 28 Jun 12:29:11 12:32:16 16° 60° (ENE) 12:35:21 435.225
SO-50 28 Jun 12:39:27 12:41:59 15° 109° (ESE) 12:44:30 436.795
Oscar 19 28 Jun 12:47:39 12:52:15 34° 68° (ENE) 12:56:52 437.125/150
ISS 28 Jun 13:10:35 13:13:37 32° 26° (NNE) 13:16:38 437.550
POLYITAN 1 28 Jun 13:11:05 13:13:22 14° 269° (W) 13:15:39 437.675
BUGSAT 1 28 Jun 13:14:48 13:18:48 47° 261° (W) 13:22:53 437.445
SPROUT 28 Jun 13:23:40 13:28:00 89° 113° (ESE) 13:32:18 437.525
LO-87 28 Jun 13:24:20 13:25:04 10° 296° (WNW) 13:25:48 145.935 - 145.965
VELOX 1 28 Jun 13:27:10 13:31:38 85° 107° (ESE) 13:36:05 145.980
DX 1 28 Jun 13:36:28 13:40:27 33° 98° (E) 13:44:25 434.975-435.025
ESTCUBE 1 28 Jun 13:41:06 13:44:09 18° 295° (WNW) 13:47:12 437.505/2401.250
UKube-1 28 Jun 13:46:59 13:50:47 29° 97° (E) 13:54:32 .
Tancredo 1 28 Jun 13:48:54 13:51:54 58° 220° (SW) 13:54:52 437.200
PCSat 28 Jun 14:04:13 14:06:24 12° 324° (NW) 14:08:34 145.827
Gurwin Techsat 1B 28 Jun 14:06:16 14:11:35 73° 258° (WSW) 14:16:55 435.225
AO-7 28 Jun 14:12:49 14:20:06 35° 58° (ENE) 14:27:25 .
50 SAT 28 Jun 14:14:47 14:18:03 44° 287° (WNW) 14:21:19 437.505
SO-50 28 Jun 14:17:25 14:21:56 62° 306° (NW) 14:26:26 436.795
Oscar 19 28 Jun 14:27:08 14:31:35 29° 264° (W) 14:36:02 437.125/150
ITUPSAT 1 28 Jun 14:46:14 14:48:13 12° 90° (E) 14:50:11 437.325
ISS 28 Jun 14:47:04 14:50:06 34° 223° (SW) 14:53:08 437.550
BEESAT 28 Jun 14:53:17 14:56:03 15° 91° (E) 14:58:50 436.000
VELOX 1 28 Jun 15:06:42 15:07:23 10° 300° (WNW) 15:08:04 145.980
ITAMSAT 1 28 Jun 15:10:48 15:15:54 61° 72° (ENE) 15:21:04 435.822/435.867
DX 1 28 Jun 15:13:01 15:16:26 23° 294° (WNW) 15:19:51 434.975-435.025
UKube-1 28 Jun 15:23:07 15:26:40 25° 293° (WNW) 15:30:13 .
MOZHAYETS 4 28 Jun 15:31:12 15:34:57 24° 94° (E) 15:38:40
SO-50 28 Jun 16:01:53 16:03:18 11° 326° (NW) 16:04:43 436.795
AO-7 28 Jun 16:04:21 16:12:29 57° 257° (WSW) 16:20:42 .
ITUPSAT 1 28 Jun 16:21:44 16:26:31 70° 286° (WNW) 16:31:15 437.325
CUBESAT XI-V 28 Jun 16:21:48 16:24:35 16° 91° (E) 16:27:21 437.345
BEESAT 28 Jun 16:29:30 16:34:11 57° 288° (WNW) 16:38:51 436.000
KKS-1 28 Jun 16:41:11 16:43:56 16° 92° (E) 16:46:39 437.445
CUTE-I 28 Jun 16:42:11 16:44:03 12° 57° (ENE) 16:45:56 437.470
DOVE 4 28 Jun 16:45:43 16:48:51 21° 66° (ENE) 16:52:05 437.250
ITAMSAT 1 28 Jun 16:52:31 16:55:46 17° 269° (W) 16:59:03 435.822/435.867
STARS 28 Jun 17:02:50 17:03:50 11° 90° (E) 17:04:50 437.465
XW-2F 28 Jun 17:05:19 17:07:02 13° 65° (ENE) 17:08:45 145.980 - 146.000
MOZHAYETS 4 28 Jun 17:08:02 17:12:07 33° 291° (WNW) 17:16:10
XW-2D 28 Jun 17:11:01 17:13:24 16° 66° (ENE) 17:15:48 145.860 - 145.880
XW-2B 28 Jun 17:19:41 17:22:27 19° 68° (ENE) 17:25:13 145.730 - 145.750
LilacSat-2 28 Jun 17:22:48 17:25:51 22° 69° (ENE) 17:28:53 437.200
XW-2C 28 Jun 17:34:42 17:38:01 29° 71° (ENE) 17:41:21 145.795 - 145.815
KAITUO 1B 28 Jun 17:40:25 17:43:35 26° 70° (ENE) 17:46:43 145.475/437.950
CUBESAT XI-V 28 Jun 17:57:48 18:02:15 51° 287° (WNW) 18:06:42 437.345
NUDT-PHONESAT 28 Jun 18:10:26 18:14:08 59° 75° (ENE) 18:17:51 437.300
KKS-1 28 Jun 18:16:24 18:20:45 49° 288° (WNW) 18:25:04 437.445
CUTE-I 28 Jun 18:17:54 18:23:13 83° 75° (ENE) 18:28:36 437.470
DOVE 4 28 Jun 18:22:32 18:26:19 33° 264° (W) 18:30:17 437.250
HO-68 28 Jun 18:22:53 18:29:19 37° 63° (ENE) 18:35:45 435.675
RS-15 28 Jun 18:24:46 18:29:43 13° 93° (E) 18:34:39 29.354- 29.394
STARS 28 Jun 18:36:11 18:40:38 71° 286° (WNW) 18:45:02 437.465
XW-2F 28 Jun 18:37:03 18:40:45 48° 261° (W) 18:44:27 145.980 - 146.000
CUBEBUG 2 28 Jun 18:37:09 18:39:50 15° 63° (ENE) 18:42:34 437.445
XW-2D 28 Jun 18:43:43 18:47:17 36° 262° (W) 18:50:52 145.860 - 145.880
XW-2B 28 Jun 18:53:03 18:56:26 30° 263° (W) 18:59:50 145.730 - 145.750
LilacSat-2 28 Jun 18:56:45 19:00:00 25° 264° (W) 19:03:16 437.200
SEEDS 28 Jun 19:00:18 19:03:52 28° 70° (ENE) 19:07:28 437.485
UWE-3 28 Jun 19:03:07 19:06:06 17° 64° (ENE) 19:09:06 435.000/436.395/437.385
XW-2C 28 Jun 19:09:24 19:12:14 19° 266° (W) 19:15:04 145.795 - 145.815
KAITUO 1B 28 Jun 19:14:36 19:17:32 21° 266° (W) 19:20:27 145.475/437.950
PCSat 28 Jun 19:21:34 19:25:33 20° 44° (NE) 19:29:31 145.827
CUTE 1.7 + AOD 2 28 Jun 19:23:47 19:28:02 83° 77° (ENE) 19:32:17 437.475
BEESAT 3 28 Jun 19:24:23 19:27:00 17° 111° (ESE) 19:29:38 437.485
XW-2A 28 Jun 19:38:45 19:42:11 85° 253° (WSW) 19:45:40 145.665 - 145.685
AAUSAT CUBESAT 2 28 Jun 19:40:23 19:44:09 35° 71° (ENE) 19:47:54 437.432
AO-73 28 Jun 19:48:06 19:51:47 25° 67° (ENE) 19:55:30 145.935
AO-85 28 Jun 19:52:43 19:56:43 59° 120° (ESE) 20:00:37 145.980
STRAND 1 28 Jun 19:55:56 20:00:50 43° 99° (E) 20:05:42 437.568
YUBILEINY 28 Jun 19:59:59 20:03:17 13° 73° (ENE) 20:06:36 435.215
CUTE-I 28 Jun 20:01:52 20:03:55 12° 271° (W) 20:05:58 437.470
NO-84 28 Jun 20:08:41 20:11:50 26° 127° (SE) 20:15:12 435.350 FM
Oscar 11 28 Jun 20:10:50 20:14:39 31° 69° (ENE) 20:18:28 .
CUBEBUG 2 28 Jun 20:11:20 20:15:54 61° 260° (W) 20:20:36 437.445
